Time,TemperatureF,DewpointF,PressureIn,WindDirection,WindDirectionDegrees,WindSpeedMPH,WindSpeedGustMPH,Humidity,HourlyPrecipIn,Conditions,Clouds,dailyrainin,SoftwareType,DateUTC
2013-02-20 00:00:00,61.9,54.6,30.07,SE,135,0.0,0.0,77,0.00,CLR,,0.00,WeatherDisplay:10.37,2013-02-20 05:00:00,
2013-02-20 00:01:00,61.9,54.6,30.07,SE,135,0.0,0.0,77,0.00,CLR,,0.00,WeatherDisplay:10.37,2013-02-20 05:01:00,
2013-02-20 00:02:00,61.9,54.6,30.07,SE,135,0.0,0.0,77,0.00,CLR,,0.00,WeatherDisplay:10.37,2013-02-20 05:02:00,
2013-02-20 00:07:00,61.9,54.6,30.07,SE,135,0.0,0.0,77,0.00,CLR,,0.00,WeatherDisplay:10.37,2013-02-20 05:07:00,
2013-02-20 00:16:00,61.9,54.9,30.07,SE,135,0.0,0.0,78,0.00,CLR,,0.00,WeatherDisplay:10.37,2013-02-20 05:16:00,
2013-02-20 00:21:00,61.9,54.9,30.07,SE,134,0.0,0.0,78,0.00,CLR,,0.00,WeatherDisplay:10.37,2013-02-20 05:21:00,
2013-02-20 00:31:00,61.9,54.9,30.07,SSW,198,0.0,0.0,78,0.00,CLR,,0.00,WeatherDisplay:10.37,2013-02-20 05:31:00,
2013-02-20 00:36:00,62.1,55.5,30.07,SSW,198,0.0,0.0,79,0.00,CLR,,0.00,WeatherDisplay:10.37,2013-02-20 05:36:00,
2013-02-20 00:46:00,62.4,55.8,30.07,SSW,201,0.0,0.0,79,0.00,CLR,,0.00,WeatherDisplay:10.37,2013-02-20 05:46:00,
2013-02-20 00:51:00,62.8,56.2,30.07,SSW,205,2.3,0.0,79,0.00,CLR,,0.00,WeatherDisplay:10.37,2013-02-20 05:51:00,
2013-02-20 01:00:00,63.3,57.0,30.07,South,190,0.0,0.0,80,0.00,CLR,,0.00,WeatherDisplay:10.37,2013-02-20 06:00:00,
2013-02-20 01:01:00,63.3,57.0,30.07,South,187,0.0,0.0,80,0.00,CLR,,0.00,WeatherDisplay:10.37,2013-02-20 06:01:00,
2013-02-20 01:05:00,63.3,57.0,30.07,South,190,0.0,0.0,80,0.00,CLR,,0.00,WeatherDisplay:10.37,2013-02-20 06:05:00,
2013-02-20 01:10:00,63.3,57.0,30.07,South,187,0.0,0.0,80,0.00,CLR,,0.00,WeatherDisplay:10.37,2013-02-20 06:10:00,
2013-02-20 01:16:00,63.3,57.0,30.07,SSW,199,0.0,0.0,80,0.00,CLR,,0.00,WeatherDisplay:10.37,2013-02-20 06:16:00,
2013-02-20 01:21:00,63.5,57.2,30.07,SSW,202,0.0,0.0,80,0.00,CLR,,0.00,WeatherDisplay:10.37,2013-02-20 06:21:00,
2013-02-20 01:31:00,63.7,57.4,30.07,SSW,213,0.0,0.0,80,0.00,CLR,,0.00,WeatherDisplay:10.37,2013-02-20 06:31:00,
2013-02-20 01:36:00,63.7,57.7,30.07,SSW,213,0.0,0.0,81,0.00,CLR,,0.00,WeatherDisplay:10.37,2013-02-20 06:36:00,
2013-02-20 01:46:00,63.9,57.9,30.07,South,191,0.0,0.0,81,0.00,CLR,,0.00,WeatherDisplay:10.37,2013-02-20 06:46:00,
2013-02-20 01:51:00,64.2,58.6,30.07,SSW,204,0.0,0.0,82,0.00,CLR,,0.00,WeatherDisplay:10.37,2013-02-20 06:51:00,
2013-02-20 02:00:00,64.8,58.8,30.04,SSW,213,0.0,0.0,81,0.00,CLR,,0.00,WeatherDisplay:10.37,2013-02-20 07:00:00,
2013-02-20 02:01:00,64.9,59.3,30.04,SSW,209,0.0,0.0,82,0.00,CLR,,0.00,WeatherDisplay:10.37,2013-02-20 07:01:00,
2013-02-20 02:05:00,64.9,59.3,30.04,SSW,209,2.3,0.0,82,0.00,CLR,,0.00,WeatherDisplay:10.37,2013-02-20 07:05:00,
2013-02-20 02:10:00,64.9,59.3,30.04,SSW,209,0.0,0.0,82,0.00,CLR,,0.00,WeatherDisplay:10.37,2013-02-20 07:10:00,
2013-02-20 02:16:00,65.1,59.5,30.04,SSW,209,0.0,0.0,82,0.00,CLR,,0.00,WeatherDisplay:10.37,2013-02-20 07:16:00,
2013-02-20 02:21:00,65.1,59.5,30.04,SSW,209,0.0,0.0,82,0.00,CLR,,0.00,WeatherDisplay:10.37,2013-02-20 07:21:00,
2013-02-20 02:31:00,64.8,59.1,30.04,SSW,209,0.0,0.0,82,0.00,CLR,,0.00,WeatherDisplay:10.37,2013-02-20 07:31:00,
2013-02-20 02:36:00,64.6,59.0,30.04,SSW,209,0.0,0.0,82,0.00,CLR,,0.00,WeatherDisplay:10.37,2013-02-20 07:36:00,
2013-02-20 02:46:00,63.9,58.3,30.04,SSW,205,0.0,0.0,82,0.00,CLR,,0.00,WeatherDisplay:10.37,2013-02-20 07:46:00,
2013-02-20 02:51:00,63.9,58.3,30.04,SSW,205,0.0,0.0,82,0.00,CLR,,0.00,WeatherDisplay:10.37,2013-02-20 07:51:00,
2013-02-20 03:00:00,63.9,58.6,30.04,SSW,205,0.0,0.0,83,0.00,CLR,,0.00,WeatherDisplay:10.37,2013-02-20 08:00:00,
2013-02-20 03:01:00,65.3,60.7,30.04,West,264,3.4,0.0,85,0.00,CLR,,0.00,WeatherDisplay:10.37,2013-02-20 08:01:00,
2013-02-20 03:05:00,64.0,58.8,30.04,North,353,3.6,0.0,83,0.00,CLR,,0.00,WeatherDisplay:10.37,2013-02-20 08:05:00,
2013-02-20 03:10:00,65.5,60.8,30.04,NW,308,3.4,0.0,85,0.00,CLR,,0.00,WeatherDisplay:10.37,2013-02-20 08:10:00,
2013-02-20 03:16:00,65.7,61.7,30.04,NW,304,0.0,0.0,87,0.00,BKN,,0.00,WeatherDisplay:10.37,2013-02-20 08:16:00,
2013-02-20 03:21:00,66.0,62.0,30.04,WNW,282,0.0,0.0,87,0.00,BKN,,0.00,WeatherDisplay:10.37,2013-02-20 08:21:00,
2013-02-20 03:31:00,66.4,62.4,30.04,WNW,286,4.6,4.6,87,0.00,BKN,,0.00,WeatherDisplay:10.37,2013-02-20 08:31:00,
2013-02-20 03:36:00,66.4,62.4,30.04,NW,321,0.0,0.0,87,0.00,BKN,,0.00,WeatherDisplay:10.37,2013-02-20 08:36:00,
2013-02-20 03:46:00,66.0,62.0,30.04,NNW,327,0.0,0.0,87,0.00,SCT,,0.00,WeatherDisplay:10.37,2013-02-20 08:46:00,
2013-02-20 03:51:00,66.0,62.0,30.04,North,353,3.4,3.4,87,0.00,SCT,,0.00,WeatherDisplay:10.37,2013-02-20 08:51:00,
2013-02-20 04:00:00,65.8,61.9,30.01,North,3,5.8,5.8,87,0.00,SCT,,0.00,WeatherDisplay:10.37,2013-02-20 09:00:00,
2013-02-20 04:01:00,65.7,61.7,30.01,North,353,4.9,4.9,87,0.00,FEW,,0.00,WeatherDisplay:10.37,2013-02-20 09:01:00,
2013-02-20 04:05:00,65.8,61.9,30.01,North,353,4.0,4.0,87,0.00,FEW,,0.00,WeatherDisplay:10.37,2013-02-20 09:05:00,
2013-02-20 04:10:00,65.7,61.7,30.01,NNW,341,3.4,0.0,87,0.00,FEW,,0.00,WeatherDisplay:10.37,2013-02-20 09:10:00,
2013-02-20 04:16:00,65.7,61.7,30.01,North,357,5.8,5.8,87,0.00,SCT,,0.00,WeatherDisplay:10.37,2013-02-20 09:16:00,
2013-02-20 04:21:00,65.7,62.0,30.01,NNW,340,5.8,5.8,88,0.00,SCT,,0.00,WeatherDisplay:10.37,2013-02-20 09:21:00,
2013-02-20 04:31:00,65.7,62.0,30.01,North,0,2.7,0.0,88,0.00,BKN,,0.00,WeatherDisplay:10.37,2013-02-20 09:31:00,
2013-02-20 04:36:00,65.7,62.0,30.01,North,11,5.8,5.8,88,0.00,BKN,,0.00,WeatherDisplay:10.37,2013-02-20 09:36:00,
2013-02-20 04:46:00,65.7,62.0,30.04,NNW,340,4.6,4.6,88,0.00,BKN,,0.00,WeatherDisplay:10.37,2013-02-20 09:46:00,
2013-02-20 04:51:00,65.7,62.0,30.04,North,3,0.0,0.0,88,0.00,BKN,,0.00,WeatherDisplay:10.37,2013-02-20 09:51:00,
2013-02-20 05:00:00,65.7,62.0,30.04,North,8,0.0,0.0,88,0.00,BKN,,0.00,WeatherDisplay:10.37,2013-02-20 10:00:00,
2013-02-20 05:01:00,65.8,62.2,30.04,NNW,344,3.4,0.0,88,0.00,OVC,,0.00,WeatherDisplay:10.37,2013-02-20 10:01:00,
2013-02-20 05:05:00,65.8,62.2,30.04,NNW,342,0.0,0.0,88,0.00,OVC,,0.00,WeatherDisplay:10.37,2013-02-20 10:05:00,
2013-02-20 05:10:00,65.8,62.2,30.04,NW,310,3.1,0.0,88,0.00,OVC,,0.00,WeatherDisplay:10.37,2013-02-20 10:10:00,
2013-02-20 05:16:00,65.8,62.2,30.04,North,357,0.0,0.0,88,0.00,OVC,,0.00,WeatherDisplay:10.37,2013-02-20 10:16:00,
2013-02-20 05:21:00,66.0,62.4,30.04,West,277,2.3,2.3,88,0.00,OVC,,0.00,WeatherDisplay:10.37,2013-02-20 10:21:00,
2013-02-20 05:31:00,66.0,62.4,30.04,NNW,334,2.3,0.0,88,0.00,OVC,,0.00,WeatherDisplay:10.37,2013-02-20 10:31:00,
2013-02-20 05:36:00,65.8,62.2,30.04,NW,319,3.4,0.0,88,0.00,OVC,,0.00,WeatherDisplay:10.37,2013-02-20 10:36:00,
2013-02-20 05:46:00,65.8,62.2,30.04,North,0,2.7,2.7,88,0.00,OVC,,0.00,WeatherDisplay:10.37,2013-02-20 10:46:00,
2013-02-20 05:51:00,65.8,62.2,30.04,NNE,13,3.4,3.4,88,0.00,OVC,,0.00,WeatherDisplay:10.37,2013-02-20 10:51:00,
2013-02-20 06:00:00,65.8,62.2,30.04,North,353,3.4,3.4,88,0.00,OVC,,0.00,WeatherDisplay:10.37,2013-02-20 11:00:00,
2013-02-20 06:01:00,65.8,62.2,30.04,NNW,341,4.0,4.0,88,0.00,OVC,,0.00,WeatherDisplay:10.37,2013-02-20 11:01:00,
2013-02-20 06:05:00,65.8,62.2,30.04,NNW,328,5.8,5.8,88,0.00,OVC,,0.00,WeatherDisplay:10.37,2013-02-20 11:05:00,
2013-02-20 06:10:00,65.8,62.2,30.04,NW,311,2.7,0.0,88,0.00,OVC,,0.00,WeatherDisplay:10.37,2013-02-20 11:10:00,
2013-02-20 06:16:00,65.8,62.2,30.04,NW,326,3.6,3.6,88,0.00,OVC,,0.00,WeatherDisplay:10.37,2013-02-20 11:16:00,
2013-02-20 06:21:00,65.8,62.2,30.04,North,353,4.6,4.6,88,0.00,OVC,,0.00,WeatherDisplay:10.37,2013-02-20 11:21:00,
2013-02-20 06:31:00,65.8,62.2,30.04,North,357,3.4,3.4,88,0.00,OVC,,0.00,WeatherDisplay:10.37,2013-02-20 11:31:00,
2013-02-20 06:36:00,65.8,62.2,30.04,North,5,0.0,0.0,88,0.00,OVC,,0.00,WeatherDisplay:10.37,2013-02-20 11:36:00,
2013-02-20 06:46:00,65.8,62.2,30.04,North,353,0.0,0.0,88,0.00,OVC,,0.00,WeatherDisplay:10.37,2013-02-20 11:46:00,
2013-02-20 06:51:00,65.8,62.2,30.04,North,353,0.0,0.0,88,0.00,OVC,,0.00,WeatherDisplay:10.37,2013-02-20 11:51:00,
2013-02-20 07:00:00,65.8,62.2,30.07,North,357,0.0,0.0,88,0.00,OVC,,0.00,WeatherDisplay:10.37,2013-02-20 12:00:00,
2013-02-20 07:01:00,65.8,62.2,30.07,North,2,2.7,0.0,88,0.00,OVC,,0.00,WeatherDisplay:10.37,2013-02-20 12:01:00,
2013-02-20 07:05:00,65.8,62.2,30.07,NNW,332,4.0,4.0,88,0.00,OVC,,0.00,WeatherDisplay:10.37,2013-02-20 12:05:00,
2013-02-20 07:10:00,65.8,62.2,30.07,North,11,0.0,0.0,88,0.00,OVC,,0.00,WeatherDisplay:10.37,2013-02-20 12:10:00,
2013-02-20 07:16:00,65.8,62.2,30.07,East,87,0.0,0.0,88,0.00,OVC,,0.00,WeatherDisplay:10.37,2013-02-20 12:16:00,
2013-02-20 07:21:00,65.8,62.2,30.07,North,9,0.0,0.0,88,0.00,OVC,,0.00,WeatherDisplay:10.37,2013-02-20 12:21:00,
2013-02-20 07:31:00,66.0,62.7,30.07,NNW,344,0.0,0.0,89,0.00,OVC,,0.00,WeatherDisplay:10.37,2013-02-20 12:31:00,
2013-02-20 07:36:00,66.0,62.7,30.07,NNE,16,2.7,0.0,89,0.00,OVC,,0.00,WeatherDisplay:10.37,2013-02-20 12:36:00,
2013-02-20 07:46:00,66.2,62.5,30.07,North,0,3.4,0.0,88,0.00,OVC,,0.00,WeatherDisplay:10.37,2013-02-20 12:46:00,
2013-02-20 07:51:00,66.2,62.5,30.07,North,357,3.4,0.0,88,0.00,OVC,,0.00,WeatherDisplay:10.37,2013-02-20 12:51:00,
2013-02-20 08:00:00,66.2,62.5,30.10,North,353,2.3,0.0,88,0.00,OVC,,0.00,WeatherDisplay:10.37,2013-02-20 13:00:00,
2013-02-20 08:01:00,66.4,62.7,30.10,North,353,5.8,5.8,88,0.00,OVC,,0.00,WeatherDisplay:10.37,2013-02-20 13:01:00,
2013-02-20 08:05:00,66.4,62.7,30.10,NNE,14,4.9,0.0,88,0.00,OVC,,0.00,WeatherDisplay:10.37,2013-02-20 13:05:00,
2013-02-20 08:10:00,66.4,62.7,30.10,North,0,5.8,5.8,88,0.00,OVC,,0.00,WeatherDisplay:10.37,2013-02-20 13:10:00,
2013-02-20 08:16:00,66.4,62.7,30.10,NNW,342,3.4,0.0,88,0.00,OVC,,0.00,WeatherDisplay:10.37,2013-02-20 13:16:00,
2013-02-20 08:21:00,66.4,62.7,30.10,North,353,3.4,0.0,88,0.00,OVC,,0.00,WeatherDisplay:10.37,2013-02-20 13:21:00,
2013-02-20 08:31:00,66.6,62.9,30.10,North,357,5.8,5.8,88,0.00,OVC,,0.00,WeatherDisplay:10.37,2013-02-20 13:31:00,
2013-02-20 08:36:00,66.6,62.9,30.10,NNW,346,3.6,3.6,88,0.00,OVC,,0.00,WeatherDisplay:10.37,2013-02-20 13:36:00,
2013-02-20 08:46:00,66.7,63.1,30.10,NNW,346,5.4,0.0,88,0.00,OVC,,0.00,WeatherDisplay:10.37,2013-02-20 13:46:00,
2013-02-20 08:51:00,66.7,63.1,30.10,NNE,33,2.7,0.0,88,0.00,OVC,,0.00,WeatherDisplay:10.37,2013-02-20 13:51:00,
2013-02-20 09:00:00,66.9,63.2,30.10,NNE,15,3.4,3.4,88,0.00,OVC,,0.00,WeatherDisplay:10.37,2013-02-20 14:00:00,
2013-02-20 09:01:00,67.1,63.7,30.10,NE,46,3.4,0.0,89,0.00,OVC,,0.00,WeatherDisplay:10.37,2013-02-20 14:01:00,
2013-02-20 09:05:00,66.9,63.2,30.10,NNE,12,2.7,0.0,88,0.00,OVC,,0.00,WeatherDisplay:10.37,2013-02-20 14:05:00,
2013-02-20 09:10:00,67.1,63.4,30.10,North,353,3.1,0.0,88,0.00,OVC,,0.00,WeatherDisplay:10.37,2013-02-20 14:10:00,
2013-02-20 09:16:00,67.3,63.9,30.10,NNE,19,2.3,0.0,89,0.00,OVC,,0.00,WeatherDisplay:10.37,2013-02-20 14:16:00,
2013-02-20 09:21:00,67.5,64.1,30.10,NNE,19,3.6,0.0,89,0.00,OVC,,0.00,WeatherDisplay:10.37,2013-02-20 14:21:00,
2013-02-20 09:31:00,68.2,64.5,30.10,NW,325,2.3,0.0,88,0.00,OVC,,0.00,WeatherDisplay:10.37,2013-02-20 14:31:00,
2013-02-20 09:36:00,68.5,65.2,30.10,ESE,116,3.4,0.0,89,0.00,OVC,,0.00,WeatherDisplay:10.37,2013-02-20 14:36:00,
2013-02-20 09:46:00,68.9,65.2,30.07,East,90,3.4,3.4,88,0.00,OVC,,0.00,WeatherDisplay:10.37,2013-02-20 14:46:00,
2013-02-20 09:51:00,69.1,65.4,30.07,ESE,116,5.8,0.0,88,0.00,OVC,,0.00,WeatherDisplay:10.37,2013-02-20 14:51:00,
2013-02-20 10:00:00,69.3,65.6,30.10,East,89,3.4,3.4,88,0.00,OVC,,0.00,WeatherDisplay:10.37,2013-02-20 15:00:00,
2013-02-20 10:01:00,70.0,66.3,30.10,ENE,69,3.4,3.4,88,0.00,OVC,,0.00,WeatherDisplay:10.37,2013-02-20 15:01:00,
2013-02-20 10:05:00,69.8,66.1,30.10,SE,130,3.4,3.4,88,0.00,OVC,,0.00,WeatherDisplay:10.37,2013-02-20 15:05:00,
2013-02-20 10:10:00,70.0,66.3,30.10,NNE,19,4.0,4.0,88,0.00,OVC,,0.00,WeatherDisplay:10.37,2013-02-20 15:10:00,
2013-02-20 10:16:00,70.2,66.1,30.10,NE,50,5.8,5.8,87,0.00,OVC,,0.00,WeatherDisplay:10.37,2013-02-20 15:16:00,
2013-02-20 10:21:00,70.3,66.3,30.10,North,357,6.3,6.3,87,0.00,OVC,,0.00,WeatherDisplay:10.37,2013-02-20 15:21:00,
2013-02-20 10:31:00,70.3,65.3,30.10,NNE,20,3.4,0.0,84,0.00,OVC,,0.00,WeatherDisplay:10.37,2013-02-20 15:31:00,
2013-02-20 10:36:00,70.3,64.2,30.10,East,82,4.9,4.9,81,0.00,OVC,,0.00,WeatherDisplay:10.37,2013-02-20 15:36:00,
2013-02-20 10:46:00,70.9,64.0,30.10,ESE,106,3.6,3.6,79,0.00,OVC,,0.00,WeatherDisplay:10.37,2013-02-20 15:46:00,
2013-02-20 10:51:00,70.9,63.7,30.10,East,85,5.8,5.8,78,0.00,OVC,,0.00,WeatherDisplay:10.37,2013-02-20 15:51:00,
2013-02-20 11:00:00,70.9,62.6,30.10,North,3,3.4,3.4,75,0.00,OVC,,0.00,WeatherDisplay:10.37,2013-02-20 16:00:00,
2013-02-20 11:01:00,71.2,62.5,30.10,ESE,113,3.1,0.0,74,0.00,OVC,,0.00,WeatherDisplay:10.37,2013-02-20 16:01:00,
2013-02-20 11:05:00,70.9,62.2,30.10,ESE,119,3.4,0.0,74,0.00,OVC,,0.00,WeatherDisplay:10.37,2013-02-20 16:05:00,
2013-02-20 11:10:00,71.1,62.4,30.10,SE,128,3.4,0.0,74,0.00,OVC,,0.00,WeatherDisplay:10.37,2013-02-20 16:10:00,
2013-02-20 11:16:00,71.4,62.7,30.10,ESE,111,3.6,0.0,74,0.00,OVC,,0.00,WeatherDisplay:10.37,2013-02-20 16:16:00,
2013-02-20 11:21:00,71.6,62.9,30.10,East,86,3.6,3.6,74,0.00,OVC,,0.00,WeatherDisplay:10.37,2013-02-20 16:21:00,
2013-02-20 11:31:00,72.1,62.2,30.10,North,7,3.4,3.4,71,0.00,OVC,,0.00,WeatherDisplay:10.37,2013-02-20 16:31:00,
2013-02-20 11:36:00,72.5,62.6,30.10,NNW,330,3.6,3.6,71,0.00,OVC,,0.00,WeatherDisplay:10.37,2013-02-20 16:36:00,
2013-02-20 11:46:00,73.4,61.8,30.10,NE,51,2.7,0.0,67,0.00,OVC,,0.00,WeatherDisplay:10.37,2013-02-20 16:46:00,
2013-02-20 11:51:00,73.8,61.3,30.10,North,357,5.8,5.8,65,0.00,OVC,,0.00,WeatherDisplay:10.37,2013-02-20 16:51:00,
2013-02-20 12:00:00,74.7,61.2,30.07,NE,37,6.3,6.3,63,0.00,OVC,,0.00,WeatherDisplay:10.37,2013-02-20 17:00:00,
2013-02-20 12:01:00,75.4,58.6,30.07,North,353,3.6,0.0,56,0.00,OVC,,0.00,WeatherDisplay:10.37,2013-02-20 17:01:00,
2013-02-20 12:05:00,75.2,60.4,30.07,ESE,115,4.9,4.9,60,0.00,OVC,,0.00,WeatherDisplay:10.37,2013-02-20 17:05:00,
2013-02-20 12:10:00,75.4,59.6,30.07,NW,319,3.4,3.4,58,0.00,OVC,,0.00,WeatherDisplay:10.37,2013-02-20 17:10:00,
2013-02-20 12:16:00,75.4,57.6,30.07,ESE,116,4.0,4.0,54,0.00,OVC,,0.00,WeatherDisplay:10.37,2013-02-20 17:16:00,
2013-02-20 12:21:00,75.6,58.8,30.07,ESE,117,3.4,0.0,56,0.00,OVC,,0.00,WeatherDisplay:10.37,2013-02-20 17:21:00,
2013-02-20 12:31:00,76.5,60.6,30.07,ENE,74,5.8,5.8,58,0.00,SCT,,0.00,WeatherDisplay:10.37,2013-02-20 17:31:00,
2013-02-20 12:36:00,76.8,58.9,30.07,ESE,118,3.4,3.4,54,0.00,SCT,,0.00,WeatherDisplay:10.37,2013-02-20 17:36:00,
2013-02-20 12:46:00,77.4,56.7,30.07,NW,315,4.6,4.6,49,0.00,SCT,,0.00,WeatherDisplay:10.37,2013-02-20 17:46:00,
2013-02-20 12:51:00,77.5,56.9,30.07,NNW,345,3.4,0.0,49,0.00,SCT,,0.00,WeatherDisplay:10.37,2013-02-20 17:51:00,
2013-02-20 13:00:00,77.9,56.6,30.07,ESE,107,3.4,3.4,48,0.00,SCT,,0.00,WeatherDisplay:10.37,2013-02-20 18:00:00,
2013-02-20 13:01:00,79.0,57.0,30.04,NNW,337,3.6,3.6,47,0.00,CLR,,0.00,WeatherDisplay:10.37,2013-02-20 18:01:00,
2013-02-20 13:05:00,78.3,58.1,30.07,East,100,4.0,4.0,50,0.00,CLR,,0.00,WeatherDisplay:10.37,2013-02-20 18:05:00,
2013-02-20 13:10:00,79.0,57.0,30.07,NNE,24,2.7,2.7,47,0.00,CLR,,0.00,WeatherDisplay:10.37,2013-02-20 18:10:00,
2013-02-20 13:16:00,79.2,54.7,30.04,ESE,108,2.7,0.0,43,0.00,CLR,,0.00,WeatherDisplay:10.37,2013-02-20 18:16:00,
2013-02-20 13:21:00,79.0,53.9,30.04,West,266,4.0,4.0,42,0.00,CLR,,0.00,WeatherDisplay:10.37,2013-02-20 18:21:00,
2013-02-20 13:31:00,79.2,56.6,30.04,SE,126,3.4,3.4,46,0.00,CLR,,0.00,WeatherDisplay:10.37,2013-02-20 18:31:00,
2013-02-20 13:36:00,79.5,55.1,30.04,SSE,150,4.0,4.0,43,0.00,CLR,,0.00,WeatherDisplay:10.37,2013-02-20 18:36:00,
2013-02-20 13:46:00,80.6,56.7,30.04,North,353,3.4,3.4,44,0.00,CLR,,0.00,WeatherDisplay:10.37,2013-02-20 18:46:00,
2013-02-20 13:51:00,81.1,55.2,30.04,North,9,3.4,3.4,41,0.00,CLR,,0.00,WeatherDisplay:10.37,2013-02-20 18:51:00,
2013-02-20 14:00:00,81.7,52.9,30.04,WNW,291,5.8,5.8,37,0.00,CLR,,0.00,WeatherDisplay:10.37,2013-02-20 19:00:00,
2013-02-20 14:01:00,81.5,54.2,30.04,SSE,150,3.4,0.0,39,0.00,CLR,,0.00,WeatherDisplay:10.37,2013-02-20 19:01:00,
2013-02-20 14:05:00,81.5,54.2,30.04,SSE,148,5.8,5.8,39,0.00,CLR,,0.00,WeatherDisplay:10.37,2013-02-20 19:05:00,
2013-02-20 14:10:00,81.5,54.2,30.04,SSE,165,4.6,4.6,39,0.00,CLR,,0.00,WeatherDisplay:10.37,2013-02-20 19:10:00,
2013-02-20 14:16:00,81.9,54.5,30.04,WSW,241,4.0,4.0,39,0.00,CLR,,0.00,WeatherDisplay:10.37,2013-02-20 19:16:00,
2013-02-20 14:21:00,81.7,52.9,30.04,South,186,3.4,0.0,37,0.00,CLR,,0.00,WeatherDisplay:10.37,2013-02-20 19:21:00,
2013-02-20 14:31:00,80.4,53.2,30.04,SW,218,3.6,3.6,39,0.00,CLR,,0.00,WeatherDisplay:10.37,2013-02-20 19:31:00,
2013-02-20 14:36:00,79.9,53.4,30.04,West,279,2.3,0.0,40,0.00,CLR,,0.00,WeatherDisplay:10.37,2013-02-20 19:36:00,
2013-02-20 14:46:00,79.9,52.0,30.04,SSW,213,2.7,2.7,38,0.00,CLR,,0.00,WeatherDisplay:10.37,2013-02-20 19:46:00,
2013-02-20 14:51:00,80.2,53.0,30.04,West,277,3.4,0.0,39,0.00,CLR,,0.00,WeatherDisplay:10.37,2013-02-20 19:51:00,
2013-02-20 15:00:00,81.1,53.1,30.04,SSW,205,7.2,7.2,38,0.00,CLR,,0.00,WeatherDisplay:10.37,2013-02-20 20:00:00,
2013-02-20 15:01:00,81.0,52.2,30.01,WNW,287,4.0,4.0,37,0.00,CLR,,0.00,WeatherDisplay:10.37,2013-02-20 20:01:00,
2013-02-20 15:05:00,81.1,52.4,30.04,WSW,239,3.4,3.4,37,0.00,CLR,,0.00,WeatherDisplay:10.37,2013-02-20 20:05:00,
2013-02-20 15:10:00,81.0,52.2,30.01,West,264,4.0,4.0,37,0.00,CLR,,0.00,WeatherDisplay:10.37,2013-02-20 20:10:00,
2013-02-20 15:16:00,80.4,53.2,30.01,NNW,329,3.6,3.6,39,0.00,CLR,,0.00,WeatherDisplay:10.37,2013-02-20 20:16:00,
2013-02-20 15:21:00,79.9,52.7,30.01,West,262,3.4,3.4,39,0.00,CLR,,0.00,WeatherDisplay:10.37,2013-02-20 20:21:00,
2013-02-20 15:31:00,78.6,52.9,30.01,WNW,287,5.8,5.8,41,0.00,CLR,,0.00,WeatherDisplay:10.37,2013-02-20 20:31:00,
2013-02-20 15:36:00,78.3,53.3,30.01,NW,322,4.6,4.6,42,0.00,CLR,,0.00,WeatherDisplay:10.37,2013-02-20 20:36:00,
2013-02-20 15:46:00,78.1,52.5,30.04,NW,325,5.8,5.8,41,0.00,CLR,,0.00,WeatherDisplay:10.37,2013-02-20 20:46:00,
2013-02-20 15:51:00,77.5,52.6,30.04,West,268,4.0,4.0,42,0.00,CLR,,0.00,WeatherDisplay:10.37,2013-02-20 20:51:00,
2013-02-20 16:00:00,76.5,52.9,30.04,NNW,328,9.2,9.2,44,0.00,CLR,,0.00,WeatherDisplay:10.37,2013-02-20 21:00:00,
2013-02-20 16:01:00,75.6,52.7,30.04,NNW,345,8.1,8.1,45,0.00,CLR,,0.00,WeatherDisplay:10.37,2013-02-20 21:01:00,
2013-02-20 16:05:00,76.1,52.6,30.04,WNW,298,7.2,7.2,44,0.00,CLR,,0.00,WeatherDisplay:10.37,2013-02-20 21:05:00,
2013-02-20 16:10:00,75.6,52.7,30.04,NNW,334,8.1,8.1,45,0.00,CLR,,0.00,WeatherDisplay:10.37,2013-02-20 21:10:00,
2013-02-20 16:16:00,75.7,51.6,30.04,WSW,256,8.1,8.1,43,0.00,CLR,,0.00,WeatherDisplay:10.37,2013-02-20 21:16:00,
2013-02-20 16:21:00,75.6,50.9,30.04,WSW,245,8.1,8.1,42,0.00,CLR,,0.00,WeatherDisplay:10.37,2013-02-20 21:21:00,
2013-02-20 16:31:00,76.1,52.0,30.07,WSW,255,4.6,4.6,43,0.00,SCT,,0.00,WeatherDisplay:10.37,2013-02-20 21:31:00,
2013-02-20 16:36:00,75.7,50.4,30.07,NW,320,4.0,4.0,41,0.00,SCT,,0.00,WeatherDisplay:10.37,2013-02-20 21:36:00,
2013-02-20 16:46:00,76.5,51.0,30.07,NW,304,5.8,5.8,41,0.00,SCT,,0.00,WeatherDisplay:10.37,2013-02-20 21:46:00,
2013-02-20 16:51:00,75.6,49.5,30.07,NE,41,5.4,5.4,40,0.00,SCT,,0.00,WeatherDisplay:10.37,2013-02-20 21:51:00,
2013-02-20 17:00:00,73.0,49.8,30.07,NW,320,5.8,5.8,44,0.00,SCT,,0.00,WeatherDisplay:10.37,2013-02-20 22:00:00,
2013-02-20 17:01:00,72.3,49.8,30.07,NNW,332,9.2,9.2,45,0.00,SCT,,0.00,WeatherDisplay:10.37,2013-02-20 22:01:00,
2013-02-20 17:05:00,72.5,49.9,30.07,North,357,5.8,5.8,45,0.00,SCT,,0.00,WeatherDisplay:10.37,2013-02-20 22:05:00,
2013-02-20 17:10:00,72.3,50.4,30.07,NNW,335,8.7,8.7,46,0.00,SCT,,0.00,WeatherDisplay:10.37,2013-02-20 22:10:00,
2013-02-20 17:16:00,72.5,49.9,30.07,WSW,256,3.4,3.4,45,0.00,SCT,,0.00,WeatherDisplay:10.37,2013-02-20 22:16:00,
2013-02-20 17:21:00,73.0,50.4,30.07,NNW,348,4.6,4.6,45,0.00,SCT,,0.00,WeatherDisplay:10.37,2013-02-20 22:21:00,
2013-02-20 17:31:00,73.9,50.0,30.07,North,357,6.3,6.3,43,0.00,CLR,,0.00,WeatherDisplay:10.37,2013-02-20 22:31:00,
2013-02-20 17:36:00,73.4,48.9,30.07,NNW,345,5.8,5.8,42,0.00,CLR,,0.00,WeatherDisplay:10.37,2013-02-20 22:36:00,
2013-02-20 17:46:00,71.4,49.0,30.07,NW,320,5.4,5.4,45,0.00,CLR,,0.00,WeatherDisplay:10.37,2013-02-20 22:46:00,
2013-02-20 17:51:00,70.9,49.1,30.07,NNW,345,5.8,5.8,46,0.00,CLR,,0.00,WeatherDisplay:10.37,2013-02-20 22:51:00,
2013-02-20 18:00:00,70.2,49.0,30.07,NNW,329,0.0,0.0,47,0.00,CLR,,0.00,WeatherDisplay:10.37,2013-02-20 23:00:00,
2013-02-20 18:01:00,69.6,49.1,30.07,North,353,3.4,3.4,48,0.00,CLR,,0.00,WeatherDisplay:10.37,2013-02-20 23:01:00,
2013-02-20 18:05:00,69.8,49.2,30.07,NNW,346,2.2,0.0,48,0.00,CLR,,0.00,WeatherDisplay:10.37,2013-02-20 23:05:00,
2013-02-20 18:10:00,69.6,49.1,30.07,NNW,330,3.6,3.6,48,0.00,CLR,,0.00,WeatherDisplay:10.37,2013-02-20 23:10:00,
2013-02-20 18:16:00,69.3,49.3,30.07,North,350,3.6,3.6,49,0.00,CLR,,0.00,WeatherDisplay:10.37,2013-02-20 23:16:00,
2013-02-20 18:21:00,69.1,49.1,30.07,NNW,342,4.0,0.0,49,0.00,CLR,,0.00,WeatherDisplay:10.37,2013-02-20 23:21:00,
2013-02-20 18:31:00,68.5,49.2,30.07,SW,230,3.1,0.0,50,0.00,CLR,,0.00,WeatherDisplay:10.37,2013-02-20 23:31:00,
2013-02-20 18:36:00,68.4,49.5,30.07,West,271,0.0,0.0,51,0.00,CLR,,0.00,WeatherDisplay:10.37,2013-02-20 23:36:00,
2013-02-20 18:46:00,67.6,49.9,30.07,West,266,3.4,3.4,53,0.00,CLR,,0.00,WeatherDisplay:10.37,2013-02-20 23:46:00,
2013-02-20 18:51:00,67.3,50.1,30.07,WSW,257,3.4,3.4,54,0.00,CLR,,0.00,WeatherDisplay:10.37,2013-02-20 23:51:00,
2013-02-20 19:00:00,66.7,50.5,30.07,West,280,4.0,4.0,56,0.00,CLR,,0.00,WeatherDisplay:10.37,2013-02-21 00:00:00,
2013-02-20 19:01:00,66.6,50.4,30.07,West,267,2.3,0.0,56,0.00,CLR,,0.00,WeatherDisplay:10.37,2013-02-21 00:01:00,
2013-02-20 19:05:00,66.7,50.5,30.07,West,261,3.4,3.4,56,0.00,CLR,,0.00,WeatherDisplay:10.37,2013-02-21 00:05:00,
2013-02-20 19:10:00,66.6,50.4,30.07,West,267,2.7,0.0,56,0.00,CLR,,0.00,WeatherDisplay:10.37,2013-02-21 00:10:00,
2013-02-20 19:16:00,66.4,49.7,30.07,West,264,3.4,0.0,55,0.00,CLR,,0.00,WeatherDisplay:10.37,2013-02-21 00:16:00,
2013-02-20 19:21:00,66.2,49.6,30.07,WNW,300,0.0,0.0,55,0.00,CLR,,0.00,WeatherDisplay:10.37,2013-02-21 00:21:00,
2013-02-20 19:31:00,66.0,49.9,30.07,NNW,331,3.4,3.4,56,0.00,CLR,,0.00,WeatherDisplay:10.37,2013-02-21 00:31:00,
2013-02-20 19:36:00,65.8,49.7,30.07,NNW,338,3.6,3.6,56,0.00,CLR,,0.00,WeatherDisplay:10.37,2013-02-21 00:36:00,
2013-02-20 19:46:00,65.7,49.5,30.10,NNW,328,3.4,3.4,56,0.00,CLR,,0.00,WeatherDisplay:10.37,2013-02-21 00:46:00,
2013-02-20 19:51:00,65.5,49.4,30.10,NW,325,5.8,5.8,56,0.00,CLR,,0.00,WeatherDisplay:10.37,2013-02-21 00:51:00,
2013-02-20 20:00:00,65.3,49.2,30.10,NNW,345,4.0,4.0,56,0.00,CLR,,0.00,WeatherDisplay:10.37,2013-02-21 01:00:00,
2013-02-20 20:01:00,65.1,50.0,30.10,North,0,3.4,3.4,58,0.00,CLR,,0.00,WeatherDisplay:10.37,2013-02-21 01:01:00,
2013-02-20 20:05:00,65.3,49.7,30.10,North,0,5.8,5.8,57,0.00,CLR,,0.00,WeatherDisplay:10.37,2013-02-21 01:05:00,
2013-02-20 20:10:00,65.1,50.0,30.10,NNW,342,3.4,3.4,58,0.00,CLR,,0.00,WeatherDisplay:10.37,2013-02-21 01:10:00,
2013-02-20 20:16:00,64.9,49.8,30.10,NNW,338,3.6,3.6,58,0.00,CLR,,0.00,WeatherDisplay:10.37,2013-02-21 01:16:00,
2013-02-20 20:21:00,64.8,49.6,30.10,North,350,4.0,4.0,58,0.00,CLR,,0.00,WeatherDisplay:10.37,2013-02-21 01:21:00,
2013-02-20 20:31:00,64.8,49.6,30.10,North,0,0.0,0.0,58,0.00,CLR,,0.00,WeatherDisplay:10.37,2013-02-21 01:31:00,
2013-02-20 20:36:00,64.6,49.5,30.10,North,0,0.0,0.0,58,0.00,CLR,,0.00,WeatherDisplay:10.37,2013-02-21 01:36:00,
2013-02-20 20:46:00,64.4,49.3,30.10,North,0,0.0,0.0,58,0.00,CLR,,0.00,WeatherDisplay:10.37,2013-02-21 01:46:00,
2013-02-20 20:51:00,64.2,49.6,30.10,North,0,0.0,0.0,59,0.00,CLR,,0.00,WeatherDisplay:10.37,2013-02-21 01:51:00,
2013-02-20 21:00:00,64.0,49.4,30.10,North,0,0.0,0.0,59,0.00,CLR,,0.00,WeatherDisplay:10.37,2013-02-21 02:00:00,
2013-02-20 21:01:00,63.9,49.7,30.10,North,4,2.7,2.7,60,0.00,CLR,,0.00,WeatherDisplay:10.37,2013-02-21 02:01:00,
2013-02-20 21:05:00,63.9,49.2,30.10,North,0,2.7,0.0,59,0.00,CLR,,0.00,WeatherDisplay:10.37,2013-02-21 02:05:00,
2013-02-20 21:10:00,63.9,49.7,30.10,North,5,2.7,0.0,60,0.00,CLR,,0.00,WeatherDisplay:10.37,2013-02-21 02:10:00,
2013-02-20 21:16:00,63.9,50.1,30.10,NNW,343,4.9,4.9,61,0.00,CLR,,0.00,WeatherDisplay:10.37,2013-02-21 02:16:00,
2013-02-20 21:21:00,63.7,50.0,30.10,North,357,3.4,0.0,61,0.00,CLR,,0.00,WeatherDisplay:10.37,2013-02-21 02:21:00,
2013-02-20 21:31:00,63.5,49.8,30.10,North,357,3.4,3.4,61,0.00,CLR,,0.00,WeatherDisplay:10.37,2013-02-21 02:31:00,
2013-02-20 21:36:00,63.5,49.8,30.10,East,82,2.7,0.0,61,0.00,CLR,,0.00,WeatherDisplay:10.37,2013-02-21 02:36:00,
2013-02-20 21:46:00,63.5,49.8,30.10,North,8,3.4,3.4,61,0.00,CLR,,0.00,WeatherDisplay:10.37,2013-02-21 02:46:00,
2013-02-20 21:51:00,63.5,49.8,30.10,NNW,346,4.0,4.0,61,0.00,CLR,,0.00,WeatherDisplay:10.37,2013-02-21 02:51:00,
2013-02-20 22:00:00,63.3,50.1,30.10,North,5,4.6,4.6,62,0.00,CLR,,0.00,WeatherDisplay:10.37,2013-02-21 03:00:00,
2013-02-20 22:01:00,63.1,49.9,30.10,North,353,2.3,0.0,62,0.00,CLR,,0.00,WeatherDisplay:10.37,2013-02-21 03:01:00,
2013-02-20 22:05:00,63.3,50.1,30.10,NNE,16,8.1,8.1,62,0.00,CLR,,0.00,WeatherDisplay:10.37,2013-02-21 03:05:00,
2013-02-20 22:10:00,63.1,49.9,30.10,NNE,12,3.4,0.0,62,0.00,CLR,,0.00,WeatherDisplay:10.37,2013-02-21 03:10:00,
2013-02-20 22:16:00,63.1,49.9,30.10,North,0,2.3,0.0,62,0.00,CLR,,0.00,WeatherDisplay:10.37,2013-02-21 03:16:00,
2013-02-20 22:21:00,63.0,49.7,30.10,North,353,3.6,3.6,62,0.00,CLR,,0.00,WeatherDisplay:10.37,2013-02-21 03:21:00,
2013-02-20 22:31:00,62.8,49.6,30.10,North,353,4.0,4.0,62,0.00,CLR,,0.00,WeatherDisplay:10.37,2013-02-21 03:31:00,
2013-02-20 22:36:00,62.8,49.6,30.10,NNE,24,3.4,0.0,62,0.00,CLR,,0.00,WeatherDisplay:10.37,2013-02-21 03:36:00,
2013-02-20 22:46:00,62.6,49.8,30.10,North,353,0.0,0.0,63,0.00,CLR,,0.00,WeatherDisplay:10.37,2013-02-21 03:46:00,
2013-02-20 22:51:00,62.6,49.8,30.10,North,0,2.3,0.0,63,0.00,CLR,,0.00,WeatherDisplay:10.37,2013-02-21 03:51:00,
2013-02-20 23:00:00,62.4,49.7,30.07,ENE,63,0.0,0.0,63,0.00,CLR,,0.00,WeatherDisplay:10.37,2013-02-21 04:00:00,
2013-02-20 23:01:00,62.1,49.3,30.07,North,0,0.0,0.0,63,0.00,CLR,,0.00,WeatherDisplay:10.37,2013-02-21 04:01:00,
2013-02-20 23:05:00,62.2,49.5,30.07,ESE,116,0.0,0.0,63,0.00,CLR,,0.00,WeatherDisplay:10.37,2013-02-21 04:05:00,
2013-02-20 23:10:00,62.1,49.3,30.07,North,0,0.0,0.0,63,0.00,CLR,,0.00,WeatherDisplay:10.37,2013-02-21 04:10:00,
2013-02-20 23:16:00,61.9,49.1,30.07,North,0,0.0,0.0,63,0.00,CLR,,0.00,WeatherDisplay:10.37,2013-02-21 04:16:00,
2013-02-20 23:21:00,61.7,49.0,30.07,North,0,0.0,0.0,63,0.00,CLR,,0.00,WeatherDisplay:10.37,2013-02-21 04:21:00,
2013-02-20 23:31:00,61.9,50.0,30.07,NE,38,3.6,3.6,65,0.00,CLR,,0.00,WeatherDisplay:10.37,2013-02-21 04:31:00,
2013-02-20 23:36:00,61.9,50.4,30.07,NNE,19,2.3,0.0,66,0.00,CLR,,0.00,WeatherDisplay:10.37,2013-02-21 04:36:00,
2013-02-20 23:46:00,61.9,50.4,30.07,NNE,21,0.0,0.0,66,0.00,CLR,,0.00,WeatherDisplay:10.37,2013-02-21 04:46:00,
2013-02-20 23:51:00,61.7,50.2,30.07,NNE,21,0.0,0.0,66,0.00,CLR,,0.00,WeatherDisplay:10.37,2013-02-21 04:51:00,